Location: Unspecified
(0.0000°N, 0.0000°E)
Time: 04:29:26
(UTC+02:00)

PROBA 2 - Visible Passes

Search period start: 28 March 2017 00:00
Search period end: 07 April 2017 00:00
Orbit: 707 x 725 km, 98.3° (Epoch: 26 March)

Date Brightness Start Highest point End Pass type
(mag) Time Alt. Az. Time Alt. Az. Time Alt. Az.
28 Mar ? 07:32:00 10° SE 07:35:36 21° ENE 07:39:11 10° NNE visible
29 Mar ? 20:41:11 10° N 20:45:45 46° WNW 20:50:20 10° SSW visible
30 Mar ? 07:28:06 10° ESE 07:31:26 18° ENE 07:34:44 10° NE visible
30 Mar ? 21:31:06 10° WNW 21:32:31 11° WNW 21:33:55 10° W visible
31 Mar ? 20:36:56 10° N 20:41:35 53° WNW 20:46:14 10° SSW visible
01 Apr ? 07:24:16 10° ESE 07:27:16 16° ENE 07:30:14 10° NE visible
01 Apr ? 21:26:13 10° NW 21:28:20 13° WNW 21:30:28 10° WSW visible
02 Apr ? 20:32:41 10° N 20:37:23 60° WNW 20:42:06 10° SSW visible
03 Apr ? 07:20:30 10° ESE 07:23:05 14° ENE 07:25:40 10° NE visible
03 Apr ? 21:21:33 10° NW 21:24:09 15° WNW 21:26:47 10° WSW visible
04 Apr ? 20:28:28 10° N 20:33:12 69° WNW 20:37:58 10° SSW visible
05 Apr ? 07:16:52 10° ESE 07:18:55 13° ENE 07:20:58 10° NE visible
05 Apr ? 21:16:59 10° NW 21:19:59 17° WNW 21:23:00 10° WSW visible
06 Apr ? 20:24:16 10° N 20:29:02 79° WNW 20:33:49 10° SSW visible
